Showing default

MIDAS 7/ERS 10, 622

Orbit data source: Space-Track

MIDAS 7/ERS 10, 622 is a payload satellite owned by USAF SSD (US) in LEO that was launched on Fri, 19 Jul 1963 UTC via an ATLAS AGENA B launch vehicle from the Air Force Western Test Range (AFWTR). Payloads include a variety of satellites, spacecraft, and rockets equipped with specific instruments for various scientific and technological missions. These include communications satellites like Starlink; space stations such as the ISS; scientific satellites like the Hubble; Earth observation satellites from companies like Planet Labs, Umbra, and HawkEye 360; GPS; miniature CubeSats for education and research; and military/defense satellites.

Loading next visibility...
MIDAS 7/ERS 10 details
Identifier
622, 1963-030A
Orbit
LEO
Last TLE update1 day ago
Origin
Flag of USUSAF SSD (US)
ManufacturerLMSC
MissionDefense Early Warn
Bus & MotorMIDAS, Unknown motor
Mass~1,540 kg wet, ~840 kg dry
Launch date (UTC)
1963-07-19 (61 years ago)
Launch vehicle
ATLAS AGENA B
Launch site
Air Force Western Test Range (AFWTR)
Object type
Payload
Rocket body
Debris
Shape & HBRCyl + Cone, 8.99 m
Radar Cross Section11.475 m², Large (>1 m²)

Expand to show TLE details & history

TLE from 1 day ago
0 MIDAS 7/ERS 10
1 00622U 63030A   24355.54888411  .00000008  00000-0  28672-2 0  9995
2 00622  88.4049 241.2750 0032297 242.4164 117.3404  8.57932273413152
Epoch: 2024-12-20T13:10Z
Definitive object data (Epoch: 2024-12-20T13:10:23.587Z)
Latitude-0.00001°
Longitude-45.93608°
Altitude3,718.443 km
Speed6.279 km/s
True Right ascension16h 05m 05s
True Declination0° 00' 00"
Sunlit
Object was in daylight at TLE epoch
Visualization TLE readout
Latitude-29.31484°
Longitude134.90044°
Altitude3,684.085 km
Speed6.303 km/s
Apparent Right ascension02h 47m 10s
Apparent Declination-36° 39' 10"
Sunlit
Object is in daylight
Visualization observer readout
Local Sidereal Time12:13:15
Azimuth263.728° W
Elevation-59.855°
Doppler factor1
Orbital elements
Apogee altitude3,731.601 km
Perigee altitude3,666.509 km
Semi-major axis10,077.192 km
Eccentricity0.0032297
Inclination88.4049°
RAAN241.275°
Arg. of periapsis242.4164°
True anomaly117.66854°
Mean anomaly117.3404°
Eccentric anomaly117.50453°
Mean motion2.14553 °/min
BSTAR0.0028672
Orbital period167.79 mins
Loading maneuver chart data...
Loading historical data...
Loading historical data...
Loading historical data...
Loading historical data...
Loading historical data...
Loading historical data...
Loading historical data...

MIDAS 7/ERS 10 Visibility forecast

Observer location: undefined°, undefined

Span
Click to sort rows by Start time (UTC) header in descending order
Start Az.
Max El. time (UTC)
Max El. Az.
Max El.
End time (UTC)
End Az.
28 mins2024-12-21 14:29:20.410Z113.13° SE2024-12-21 14:43:20.410Z63.443° ENE26.248°2024-12-21 14:57:20.410Z12.959° NNE
37 mins2024-12-21 17:10:20.410Z183.198° SSW2024-12-21 17:28:20.410Z280.024° WNW44.492°2024-12-21 17:47:20.410Z359.675° N
22 mins2024-12-21 20:10:20.410Z267.09° W2024-12-21 20:20:20.410Z301.749° NW17.687°2024-12-21 20:32:20.410Z342.912° N
31 mins2024-12-22 02:21:20.410Z11.114° NNE2024-12-22 02:36:20.410Z67.288° ENE27.736°2024-12-22 02:52:20.410Z127.313° SE
36 mins2024-12-22 05:08:20.410Z356.904° N2024-12-22 05:26:20.410Z277.742° WNW43.828°2024-12-22 05:44:20.410Z197.677° SSW
17 mins2024-12-22 08:00:20.410Z335.975° NNW2024-12-22 08:08:20.410Z308.472° NW16.585°2024-12-22 08:17:20.410Z277.806° WNW
|